EW5960 Weather Reports


time (UTC)temp
F
wind
direction
speed
knots
gust
knots
rain 1hr
in
rain 24hr
in
rain mn
in
humidity
%
barometer
mb
20260503051015 53 173 4.3 7.8 0.00 0.00 0.00 56 1010.8
20260503050015 53 181 5.2 7.8 0.00 0.00 0.00 56 1010.9
20260503045015 53 172 4.3 6.1 0.00 0.00 0.00 55 1011.0
20260503044015 53 191 4.3 7.0 0.00 0.00 0.00 57 1011.1
20260503043015 52 202 5.2 7.8 0.00 0.00 0.00 58 1011.2
20260503042015 52 226 5.2 7.8 0.00 0.00 0.00 59 1011.3
20260503041015 52 241 2.6 6.1 0.00 0.00 0.00 59 1011.4
20260503040015 53 191 6.1 9.6 0.00 0.00 0.00 55 1011.6
20260503035015 53 156 6.1 8.7 0.00 0.00 0.00 54 1011.5
20260503034015 53 168 4.3 7.0 0.00 0.00 0.00 54 1011.6
20260503033015 53 199 4.3 7.0 0.00 0.00 0.00 57 1011.7
20260503032015 53 203 3.5 7.0 0.00 0.00 0.00 56 1011.9
20260503031015 53 210 2.6 6.1 0.00 0.00 0.00 55 1011.9
20260503030015 53 157 4.3 6.1 0.00 0.00 0.00 54 1012.0
20260503024055 53 171 3.5 5.2 0.00 0.00 0.00 54 1012.1
20260503023015 54 158 3.5 5.2 0.00 0.00 0.00 52 1012.2
20260503022015 54 172 3.5 5.2 0.00 0.00 0.00 53 1012.2
20260503021015 54 171 3.5 5.2 0.00 0.00 0.00 53 1012.3
20260503020015 54 158 3.5 4.3 0.00 0.00 0.00 52 1012.3
20260503015015 54 164 2.6 3.5 0.00 0.00 0.00 52 1012.4
20260503014015 54 162 3.5 5.2 0.00 0.00 0.00 53 1012.2
20260503013015 54 216 3.5 4.3 0.00 0.00 0.00 55 1012.2
20260503012015 55 226 3.5 6.1 0.00 0.00 0.00 54 1012.3
20260503011015 55 206 4.3 6.1 0.00 0.00 0.00 53 1012.2
20260503010015 55 228 2.6 5.2 0.00 0.00 0.00 55 1012.2
20260503005015 55 239 3.5 6.1 0.00 0.00 0.00 54 1012.3
20260503004015 55 258 1.7 4.3 0.00 0.00 0.00 53 1012.3
20260503003015 55 250 3.5 4.3 0.00 0.00 0.00 52 1012.4
20260503002135 56 270 0.9 6.1 0.00 0.00 0.00 50 1012.6
20260503001015 56 268 1.7 5.2 0.00 0.00 0.00 49 1012.6
20260502235014 57 267 1.7 7.8 0.00 0.00 0.00 47 1012.9
20260502234015 57 262 1.7 7.8 0.00 0.00 0.00 48 1012.7
20260502233015 58 269 1.7 5.2 0.00 0.00 0.00 45 1012.8
20260502232014 59 243 0.9 10.4 0.00 0.00 0.00 42 1012.9
20260502231055 59 271 2.6 10.4 0.00 0.00 0.00 42 1012.9
20260502230015 59 274 1.7 5.2 0.00 0.00 0.00 42 1013.0
20260502225015 59 273 2.6 8.7 0.00 0.00 0.00 43 1013.1
20260502224015 59 269 2.6 7.0 0.00 0.00 0.00 43 1013.2
20260502223014 58 275 0.9 3.5 0.00 0.00 0.00 42 1013.2
20260502222017 58 255 0.9 7.0 0.00 0.00 0.00 41 1013.2
20260502221056 59 265 2.6 12.2 0.00 0.00 0.00 41 1013.3
20260502220016 60 256 3.5 10.4 0.00 0.00 0.00 40 1013.4
20260502215016 60 255 1.7 7.0 0.00 0.00 0.00 38 1013.5
20260502214017 60 261 3.5 10.4 0.00 0.00 0.00 40 1013.7
20260502213016 60 269 1.7 9.6 0.00 0.00 0.00 38 1013.9
20260502212016 59 254 0.9 7.8 0.00 0.00 0.00 38 1013.8
20260502211056 59 224 3.5 10.4 0.00 0.00 0.00 36 1014.0
20260502210016 60 255 3.5 12.2 0.00 0.00 0.00 37 1014.0
20260502204016 60 256 4.3 13.0 0.00 0.00 0.00 38 1014.3
20260502203016 59 258 2.6 10.4 0.00 0.00 0.00 40 1014.4
20260502202056 60 235 2.6 7.8 0.00 0.00 0.00 36 1014.7
20260502201056 59 268 2.6 7.8 0.00 0.00 0.00 38 1014.8
20260502200016 59 192 6.1 10.4 0.00 0.00 0.00 37 1015.0
20260502195016 60 259 2.6 9.6 0.00 0.00 0.00 38 1015.2
20260502194016 59 258 2.6 8.7 0.00 0.00 0.00 39 1015.3
20260502193016 58 257 3.5 9.6 0.00 0.00 0.00 39 1015.3
20260502192016 58 220 3.5 8.7 0.00 0.00 0.00 39 1015.6
20260502191055 58 256 2.6 10.4 0.00 0.00 0.00 39 1015.7
20260502190015 57 223 5.2 11.3 0.00 0.00 0.00 37 1015.8
20260502185015 59 237 1.7 6.1 0.00 0.00 0.00 40 1016.0
20260502184015 58 251 1.7 7.8 0.00 0.00 0.00 41 1016.1
20260502183055 57 294 1.7 7.8 0.00 0.00 0.00 38 1016.1
20260502182015 58 244 4.3 8.7 0.00 0.00 0.00 39 1016.3
20260502181015 58 264 1.7 7.0 0.00 0.00 0.00 39 1016.5
20260502164055 55 265 0.9 8.7 0.00 0.00 0.00 40 1017.7
20260502163015 55 284 1.7 7.0 0.00 0.00 0.00 40 1017.8
20260502162015 54 277 1.7 6.1 0.00 0.00 0.00 42 1017.9
20260502161015 54 268 1.7 3.5 0.00 0.00 0.00 41 1018.0
20260502152015 51 257 1.7 6.1 0.00 0.00 0.00 49 1018.5
20260502151017 51 0.0 0.0 0.00 0.00 0.00 50 1018.4
20260502150959 49 225 1.7 3.5 0.00 0.00 0.00 53 1018.6